Probability
0 0 0 0 0 0 0 0 0 0 0 1 0 0 0 0 0 0 0 0 0 0 0 0 0 0 0 0 0 0 0 0 0 0 0 0 0 0 0 1 2 2 3
0 0 0 0 0 0 0 0 0 0 0 1 0 0 0 0 0 0 0 0 0 0 0 0 0 0 0 0 0 0 0 0 0 0 0 0 0 0 0 1 2 3 3
0 0 0 0 0 0 0 0 0 0 0 0 0 0 0 0 0 0 0 0 0 0 0 0 0 0 0 0 0 0 0 0 0 0 0 0 0 0 0 0 2 3 3
0 0 0 0 0 0 0 0 0 0 0 0 0 0 0 0 0 0 0 0 0 0 0 0 0 0 0 0 0 0 0 0 0 0 0 0 0 0 0 0 1 2 1
0 0 0 0 0 0 0 0 0 0 0 0 0 0 0 0 0 0 0 0 0 0 0 0 0 0 0 0 0 0 0 0 0 0 0 0 0 0 0 0 1 1 1
0 0 0 0 0 0 0 0 0 0 0 0 0 0 0 0 0 0 0 0 0 0 0 0 0 0 0 0 0 0 0 0 0 0 0 0 0 0 0 0 1 1 1
0 0 0 0 0 0 0 0 0 0 0 0 0 0 0 0 0 0 0 0 0 0 0 0 0 0 0 0 0 0 0 0 0 0 0 0 0 0 0 0 1 2 2
0 0 0 0 0 0 0 0 0 0 0 0 0 0 0 0 0 0 0 0 0 0 0 0 0 0 0 0 0 0 0 0 0 0 0 0 0 0 0 0 0 1 2
0 0 0 0 0 0 0 0 0 0 0 0 0 0 0 0 0 0 0 0 0 0 0 0 0 0 0 0 0 0 0 0 0 0 0 0 0 0 0 0 0 1 2
0 0 0 0 0 0 0 0 0 0 0 0 0 0 0 0 0 0 0 0 0 0 0 0 0 0 0 0 0 0 0 0 0 0 0 0 0 0 0 0 0 0 1
0 0 0 0 0 0 0 0 0 0 0 0 0 0 0 0 0 0 0 0 0 0 0 0 0 0 0 0 0 0 0 0 0 0 0 0 0 0 0 0 0 0 0
0 0 0 0 0 0 0 0 0 0 0 0 0 0 0 0 0 0 0 0 0 0 0 0 0 0 0 0 0 0 0 0 0 0 0 0 0 0 0 0 0 0 0
0 0 0 0 0 0 0 0 0 0 0 0 0 0 0 0 0 0 0 0 0 0 0 0 0 0 0 0 0 0 0 0 0 0 0 0 0 0 0 0 0 0 0
0 0 0 0 0 0 0 0 0 0 0 0 0 0 0 0 0 0 0 0 0 0 0 0 0 0 0 0 0 0 0 0 0 0 0 0 0 0 0 0 0 0 0
0 0 0 0 0 0 0 0 0 0 0 0 0 0 0 0 0 0 0 0 0 0 0 0 0 0 0 0 0 0 0 0 0 0 0 0 0 0 0 0 0 0 0
0 0 0 0 0 0 0 0 0 0 0 0 0 0 0 0 0 0 0 0 0 0 0 0 0 0 0 0 0 0 0 0 0 0 0 0 0 0 0 0 0 0 0
0 0 0 0 0 0 0 0 0 0 0 0 0 0 0 0 0 0 0 0 0 0 0 0 0 0 0 0 0 0 0 0 0 0 0 0 0 0 0 0 0 0 0
0 0 0 0 0 0 0 0 0 0 0 0 0 0 0 0 0 0 0 0 0 0 0 0 0 0 0 0 0 0 0 0 0 0 0 0 0 0 0 0 0 0 0
0 0 0 0 0 0 0 0 0 0 0 0 0 0 0 0 0 0 0 0 0 0 0 0 0 0 0 0 0 0 0 0 0 0 0 0 0 0 0 0 0 0 0
0 0 0 0 0 0 0 0 0 0 0 0 0 0 0 0 0 0 0 0 0 0 0 0 0 0 0 0 0 0 0 0 0 0 0 0 0 0 0 0 0 0 0
0 0 0 0 0 0 0 0 0 0 0 0 0 0 0 0 0 0 0 0 0 0 0 0 0 0 0 0 0 0 0 0 0 0 0 0 0 0 0 0 0 0 0
0 0 0 0 0 0 0 0 0 0 0 0 0 0 0 0 0 0 0 0 0 0 0 0 0 0 0 0 0 0 0 0 0 0 0 0 0 0 0 0 0 0 0
0 0 0 0 0 0 0 0 0 0 0 0 0 0 0 0 0 0 0 0 0 0 0 0 0 0 0 0 0 0 0 0 0 1 0 0 0 0 0 0 0 0 0
0 0 0 0 0 0 0 0 0 0 0 0 0 0 0 0 0 0 0 0 0 0 0 0 0 0 0 0 0 0 0 0 0 0 0 0 0 0 0 0 0 0 0
0 0 0 0 0 0 0 0 0 0 0 0 0 0 0 0 0 0 0 0 0 0 0 0 0 0 0 0 0 0 0 0 0 0 0 0 0 0 0 0 0 0 0
0 0 0 0 0 0 0 0 0 0 0 0 0 0 0 0 0 0 0 0 0 0 0 0 0 0 0 0 0 0 0 0 0 0 0 0 0 0 0 0 0 0 0
Wind_Speed
7 8 8 8 8 8 7 7 7 6 5 3 2 1 1 1 0 1 1 2 3 4 4 4 4 4 4 4 4 3 3 2 2 2 2 1 1 0 0 1 1 1 1
7 8 8 8 9 8 7 7 7 6 5 3 2 1 0 1 1 1 1 2 3 3 3 4 4 3 3 4 4 3 3 2 2 3 2 2 2 2 0 0 1 1 1
6 8 8 8 8 8 8 6 6 6 6 5 2 2 1 2 1 1 0 2 2 3 4 4 4 4 4 3 4 3 3 2 2 2 3 2 1 1 1 0 0 0 0
5 6 7 8 8 7 6 7 6 6 6 6 4 3 2 1 1 1 1 1 1 2 3 4 4 4 3 3 3 3 2 3 2 1 2 3 2 2 1 2 1 1 0
5 6 7 7 6 6 6 6 6 6 6 5 4 4 3 1 1 1 1 2 1 2 3 4 4 4 3 3 3 3 3 2 3 2 1 1 1 3 2 1 1 1 1
4 5 5 5 5 5 5 6 6 6 6 6 5 5 3 3 2 2 2 2 1 2 2 3 3 3 3 3 3 3 2 2 2 2 2 2 2 1 1 1 1 1 1
4 4 5 5 5 6 6 6 6 6 6 6 6 5 5 4 4 3 2 3 2 2 3 3 3 3 3 3 3 2 2 2 2 2 2 2 2 2 2 2 1 1 1
3 3 3 4 4 5 6 6 7 6 6 6 6 5 5 4 3 3 3 3 3 3 3 3 3 3 3 3 2 3 2 2 2 2 2 2 2 2 2 2 2 2 2
3 2 2 2 3 4 5 6 7 6 6 6 6 5 5 4 4 4 4 3 3 3 4 4 3 2 2 3 3 2 2 2 3 3 3 2 2 2 2 2 2 3 2
3 3 2 2 2 2 3 5 6 6 6 6 5 4 5 5 4 4 4 4 4 3 4 4 3 2 2 3 3 3 2 3 2 2 3 3 2 2 2 2 2 3 3
4 3 3 2 1 2 2 3 5 5 5 6 6 5 5 5 5 4 4 5 4 4 4 4 4 3 3 3 2 3 3 3 2 2 2 3 3 2 2 2 2 2 3
5 4 3 3 2 1 1 2 3 4 4 5 5 5 5 5 6 5 5 5 5 5 5 4 4 3 3 3 3 3 3 3 3 2 2 3 2 3 3 3 3 3 3
5 4 4 3 2 1 0 1 2 3 4 4 5 5 6 6 6 6 5 6 5 5 5 5 5 4 4 4 4 4 4 3 3 3 3 3 3 3 3 3 3 3 3
5 4 4 3 2 2 1 1 1 2 3 3 4 5 5 5 6 6 6 6 6 6 6 5 5 5 5 5 5 5 5 4 4 4 4 4 4 4 4 3 4 3 3
5 4 3 3 2 2 1 1 1 1 2 3 4 4 5 5 5 5 6 6 6 7 6 6 6 6 5 4 5 5 5 5 4 5 5 4 4 3 3 3 3 4 4
4 4 4 3 3 3 2 1 1 1 1 2 3 3 4 4 5 5 6 6 6 7 6 7 7 6 5 3 5 7 6 6 5 5 5 5 6 6 7 6 5 5 5
4 4 4 3 3 3 3 2 1 1 1 2 2 2 3 4 5 5 6 6 6 7 7 7 7 8 6 4 6 8 8 7 6 6 5 4 4 6 7 8 10 9 8
4 4 4 4 4 3 3 2 1 1 1 2 2 2 3 4 4 5 5 6 6 6 7 7 8 7 6 6 7 8 10 8 7 6 6 6 6 5 6 6 7 7 8
3 4 4 4 4 4 4 3 2 2 2 3 4 3 3 4 4 5 5 6 6 7 7 7 8 8 8 7 7 8 8 7 8 7 7 7 6 4 5 7 7 7 6
4 4 4 4 4 5 4 3 3 3 3 4 5 4 4 4 5 5 6 5 6 7 7 7 8 9 9 6 8 9 7 8 7 6 6 5 6 4 6 8 7 7 6
4 3 3 4 4 4 4 4 4 4 5 5 5 5 5 5 6 6 5 6 6 6 7 8 8 9 9 7 8 9 8 7 7 6 6 5 7 7 8 9 7 5 5
4 4 3 4 4 4 4 5 5 6 6 5 6 6 6 5 5 6 6 6 6 7 8 8 8 7 8 8 8 10 12 9 9 7 6 4 7 7 8 8 5 4 5
3 3 4 4 4 4 5 6 6 6 6 6 6 6 7 6 6 6 7 6 6 7 7 7 7 7 6 6 8 10 12 12 9 7 5 4 6 8 8 7 7 8 6
3 3 4 4 5 5 5 6 6 6 6 7 6 6 7 7 7 6 6 6 6 7 7 7 8 8 7 7 6 6 8 10 10 8 6 7 6 7 6 7 8 7 6
2 3 4 5 6 6 6 7 7 7 8 8 7 7 6 7 7 7 6 8 8 8 8 8 8 9 9 7 6 7 7 7 8 7 7 8 8 8 8 7 7 7 7
3 4 5 5 6 7 7 7 7 8 8 8 7 6 6 6 7 7 7 8 10 11 12 13 13 11 10 9 9 11 11 9 8 8 9 9 9 9 9 8 8 8 7
Wind_Direction
188 182 184 187 193 194 193 184 184 178 177 174 192 197 200 219 242 324 350 337 338 340 339 326 339 335 335 329 322 320 305 294 297 274 259 222 207 277 297 298 291 250 237
179 175 183 186 194 194 193 191 189 183 181 178 191 203 270 280 340 308 314 332 337 336 331 333 328 334 327 324 326 321 308 309 294 285 267 235 180 160 121 240 265 266 207
182 174 182 187 192 195 195 194 189 181 179 174 173 169 176 220 200 224 294 331 329 333 331 331 326 328 324 333 325 316 309 305 304 309 300 286 281 145 149 66 223 237 219
175 173 180 188 193 193 193 195 187 184 176 178 192 205 233 275 319 304 312 300 306 326 327 323 319 320 326 326 319 329 305 296 294 283 291 310 335 290 182 158 145 114 133
172 176 184 191 193 189 189 192 184 184 179 186 189 219 240 278 292 279 279 287 308 316 321 320 318 318 318 326 327 324 310 296 299 300 290 277 271 273 279 198 171 158 131
160 170 175 185 188 185 185 187 187 186 182 193 201 219 234 249 262 267 285 283 290 305 330 321 315 313 319 321 320 315 309 300 300 294 292 292 287 295 280 252 205 180 135
157 163 169 183 185 187 187 188 190 191 191 201 210 218 225 238 248 266 272 285 296 308 331 323 318 322 319 318 311 298 302 285 287 288 289 292 296 312 294 269 243 212 176
140 153 170 182 190 193 190 193 196 198 195 206 213 220 219 233 250 257 275 278 292 312 320 311 316 316 313 305 297 288 285 280 273 275 271 268 277 287 283 277 268 235 201
111 132 149 170 187 193 195 199 203 204 201 208 215 221 224 232 245 254 263 274 280 297 303 298 303 304 300 300 295 284 285 280 278 273 259 258 254 257 273 277 274 269 238
99 106 121 142 165 179 191 198 206 211 208 212 215 218 228 231 244 256 261 270 278 287 292 295 297 292 282 284 289 288 295 278 263 270 269 264 253 247 251 263 269 279 280
73 71 78 94 114 140 167 191 202 211 211 214 216 217 222 228 235 244 254 261 271 271 280 287 291 293 283 275 271 281 281 275 262 246 246 242 248 238 228 236 251 259 263
73 71 67 71 78 108 174 194 206 211 213 218 220 224 226 227 235 240 246 253 263 267 275 279 279 283 281 279 279 279 274 269 269 256 244 236 223 233 237 230 235 243 251
70 70 64 59 53 44 249 224 222 222 215 215 223 228 230 234 241 249 250 253 260 264 263 266 271 273 274 273 270 271 270 266 267 261 250 249 235 225 219 225 229 234 236
65 57 52 48 37 26 353 285 254 237 222 216 225 234 241 243 249 251 252 252 257 261 264 262 264 268 268 265 264 261 262 260 253 252 250 249 246 242 231 225 226 230 231
56 46 37 31 26 18 6 339 290 251 229 224 233 245 249 247 251 251 249 249 253 258 260 264 262 262 263 266 272 265 262 263 257 247 243 241 253 291 279 265 243 229 230
49 39 31 24 15 10 2 357 331 282 239 244 257 268 271 261 255 253 252 253 251 253 255 258 259 260 256 254 255 267 264 260 258 255 249 232 221 225 227 245 259 266 254
39 28 23 20 9 5 3 357 340 316 259 268 281 284 279 275 267 259 254 250 248 248 252 254 254 255 248 230 238 242 260 261 262 262 255 244 232 230 230 215 218 231 244
36 26 16 14 8 7 3 354 358 344 312 302 299 298 290 284 280 270 260 257 256 250 249 251 253 254 250 228 235 235 248 254 252 251 251 248 242 232 244 235 228 227 220
27 21 13 11 12 12 359 348 350 338 320 307 300 297 291 289 282 273 268 262 260 258 252 251 251 250 245 221 227 234 246 245 246 244 244 249 243 205 229 240 235 228 217
30 21 16 15 15 10 357 343 341 332 320 310 302 298 291 283 278 276 275 269 258 258 259 255 252 251 253 223 218 232 245 245 243 237 232 228 248 220 216 237 235 231 222
36 22 15 13 5 357 348 336 335 330 320 311 302 294 287 280 277 277 274 273 265 260 259 258 253 251 252 233 216 224 242 246 246 239 233 221 202 219 218 241 247 244 248
34 19 11 9 0 353 341 334 333 325 318 308 298 292 287 281 276 273 272 271 270 262 258 259 259 253 247 243 226 221 231 250 248 245 240 220 190 209 219 228 230 220 231
19 6 359 354 352 349 337 328 331 324 314 307 301 296 291 283 278 274 271 269 266 265 264 262 263 259 252 238 227 225 226 230 243 248 244 228 196 207 213 213 213 210 219
2 351 344 342 342 340 331 323 325 319 310 307 304 299 295 291 285 279 272 270 267 267 268 267 267 266 257 250 235 232 230 223 230 238 222 206 205 222 229 207 207 218 221
331 331 333 333 328 328 327 326 324 317 309 307 305 302 300 296 287 279 274 270 267 268 270 272 269 268 264 258 255 251 244 235 231 229 226 222 215 216 219 217 211 209 208
313 318 324 322 323 324 323 325 322 315 310 309 309 304 299 294 288 286 282 266 262 259 252 258 263 266 268 273 253 248 253 247 228 227 229 225 220 219 218 216 211 208 209